Regional Weather Roundup
Issued by NWS Albany, NY

Home | Current Version | Previous Version | Graphics & Text | Print | Product List | Glossary Off
Versions: 1 2 3 4 5 6 7 8 9 10 11 12 13 14 15 16 17 18 19 20 21 22 23 24 25 26 27 28 29 30 31 32 33 34 35 36 37 38 39 40 41 42 43 44 45 46 47 48 49 50

000
ASUS41 KALY 191310
RWRALY

NEW YORK STATE HOURLY WEATHER ROUNDUP
NATIONAL WEATHER SERVICE ALBANY NY
900 AM EDT SUN APR 19 2015

NOTE: "FAIR" INDICATES FEW OR NO CLOUDS BELOW 12,000 FEET WITH NO
SIGNIFICANT WEATHER AND/OR NO OBSTRUCTIONS TO VISIBILITY.

NYZ032-033-038>043-046>054-057>066-NYZ062>081-191400-
EAST


CITY           SKY/WX    TMP DP  RH WIND       PRES   REMARKS
ALBANY         MOSUNNY   46  30  53 N9        30.30R
GLENS FALLS    CLOUDY    44  29  55 NE13G23   30.30R
POUGHKEEPSIE   SUNNY     50  32  50 N8        30.27R
NEWBURGH       SUNNY     48  34  57 NE12G18   30.27R
MONTGOMERY     SUNNY     49  32  52 E12       30.27R
WHITE PLAINS   SUNNY     53  28  38 E8        30.24R
ISLIP          PTSUNNY   54  33  45 NE10      30.24R
NEW YORK CITY  PTSUNNY   53  30  41 NE13      30.25R
CENTRAL PARK   SUNNY     56  27  32 E10       30.28R
$$

NYZ005>009-017-018-044>046-055-056-191400-
CENTRAL


CITY           SKY/WX    TMP DP  RH WIND       PRES   REMARKS
FULTON         SUNNY     44  28  53 E5        30.27R
SYRACUSE       MOSUNNY   44  30  57 E3        30.26R
ROME           SUNNY     45  29  53 E9        30.28R
ELMIRA         SUNNY     45  33  63 CALM      30.23F
BINGHAMTON     SUNNY     44  28  53 E12       30.21S
MONTICELLO     SUNNY     45  32  61 E5        30.25R
$$

NYZ026>034-041>043-191400-
NORTH


CITY           SKY/WX    TMP DP  RH WIND       PRES   REMARKS
WATERTOWN      SUNNY     42  28  57 NE12      30.29S
FORT DRUM      NOT AVBL
MASSENA        SUNNY     41  26  55 NE9       30.34S
SARANAC LAKE   PTSUNNY   34  26  72 NE9       30.25R WCI  27
PLATTSBURGH    SUNNY     41  28  60 N10       30.33S
$$

NYZ001>004-010>016-019>021-191400-
WEST


CITY           SKY/WX    TMP DP  RH WIND       PRES   REMARKS
NIAGARA FALLS  PTSUNNY   43  30  60 E14       30.22S
BUFFALO        PTSUNNY   44  30  57 E14       30.21S
DUNKIRK        PTSUNNY   49  31  49 NE6       30.15F
JAMESTOWN      PTSUNNY   46  25  42 SE13      30.13F
WELLSVILLE     MOSUNNY   45  26  47 SE13      30.19F
ROCHESTER      PTSUNNY   44  30  57 E12       30.25F
PENN YAN       MOSUNNY   45  31  58 E5        30.24S
$$

             KEY
       WCI = WIND CHILL INDEX
       VSB = VISIBILITY
       HX  = HEAT INDEX
$$



USA.gov is the U.S. government's official web portal to all federal, state and local government web resources and services.